Regional Weather Roundup
Issued by NWS Upton, NY

Current Version | Previous Version | Graphics & Text | Print | Product List | Glossary Off
Versions: 1 2 3 4 5 6 7 8 9 10 11 12 13 14 15 16 17 18 19 20 21 22 23 24 25 26 27

000
ASUS41 KOKX 191805
RWROKX

Regional Weather Roundup
National Weather Service New York NY
200 PM EDT THU APR 19 2018

Note: "FAIR" indicates few or no clouds below 12,000 feet with no
significant weather and/or obstructions to visibility.

NYZ071-072-176-178-NJZ106-104-191900-
New York City Metro Area

CITY           SKY/WX    TMP DP  RH WIND       PRES   REMARKS
Central Park   LGT RAIN  43  39  86 VRB5      29.78R FOG
Bronx Bot Gard   N/A     41  37  87 NW5       29.75R
Bronx Lehman C   N/A     41  37  87 NW9         N/A
LaGuardia Arpt LGT RAIN  44  38  79 NW13      29.75R
Queens College   N/A     43  37  81 NW8         N/A
Kennedy Intl   LGT RAIN  43  39  86 NW13      29.76R
Breezy Point     N/A     43 N/A N/A NW10        N/A
Brooklyn Coll    N/A     43  37  81 NW10        N/A
Staten Island    N/A     43  37  81 NW8         N/A
Newark/Liberty LGT RAIN  44  40  85 W12       29.76R FOG
Teterboro      LGT RAIN  43  39  86 NW10      29.75R FOG
$$

NYZ177-179-078>081-191900-
Long Island New York

CITY           SKY/WX    TMP DP  RH WIND       PRES   REMARKS
Jones Beach      N/A     43 N/A N/A NW8         N/A
Wantagh          N/A     43  39  87 NW7         N/A
Hempstead        N/A     43  39  87 NW3       29.77R
Matinecock Pt    N/A     41 N/A N/A W14         N/A
Farmingdale    CLOUDY    43  38  82 NW7       29.74R
MacArthur/ISP  LGT RAIN  43  38  82 N6        29.72R
Stony Brook      N/A     41  37  87 N3          N/A
Shirley        LGT RAIN  43  41  93 NW7       29.72S
Mt Sinai Harb    N/A     41 N/A N/A CALM        N/A
Westhampton    LGT RAIN  43  38  82 N7        29.72S
East Hampton   RAIN      41  39  93 NW3       29.70R
Southold         N/A     41  39  93 NW6         N/A
Montauk          N/A     43  41  93 VRB5      29.72R
$$

NYZ052-065-067-191900-
Hudson Valley

CITY           SKY/WX    TMP DP  RH WIND       PRES   REMARKS
White Plains   LGT RAIN  40  36  86 NW13      29.73R WCI  32
Larchmont Harb   N/A     41 N/A N/A W8          N/A
Croton On Huds   N/A     43 N/A N/A W6          N/A
Somers           N/A     39  36  87 NW5         N/A
Brewster         N/A     39  36  87 NW7         N/A  WCI  34
Newburgh       CLOUDY    39  37  93 VRB6      29.75R WCI  35
Montgomery     LGT RAIN  41  36  82 W9        29.74R
Otisville        N/A     39  36  87 W5          N/A
Warwick          N/A     39  34  81 NW10        N/A  WCI  32
Suffern          N/A     39  36  87 NW12        N/A  WCI  32
Poughkeepsie   LGT RAIN  40  34  79 N5        29.75R
Albany         LGT RAIN  43  29  57 NW13      29.73R
$$

NJZ001-105-106-008-010-013-015-019>022-104-191900-
New Jersey

CITY           SKY/WX    TMP DP  RH WIND       PRES   REMARKS
Newark/Liberty LGT RAIN  44  40  85 W12       29.76R FOG
Teterboro      LGT RAIN  43  39  86 NW10      29.75R FOG
Caldwell       LGT RAIN  42  38  85 NW9       29.77R FOG
Somerville     LGT RAIN  42  39  89 NW9       29.77R
Linden         RAIN      44  39  83 NW9       29.78R
Perth Amboy      N/A     43 N/A N/A W12         N/A
Sussex         LGT RAIN  41  35  79 VRB5      29.77R
Andover          N/A     39  35  86 VRB6      29.77R WCI  35
Trenton        LGT RAIN  43  38  82 NW10      29.78R
Millville      LGT RAIN  51  42  71 NW18G26   29.77R
Atlantic City  CLOUDY    55  45  68 NW12      29.73R
Wrightstown    LGT RAIN  45  41  86 NW9       29.75
Toms River     LGT RAIN  48  41  76 NW12      29.77R
Belmar         LGT RAIN  45  41  86 W7        29.78R
$$

PAZ047>061-062-071-191900-
Eastern Pennsylvania

CITY           SKY/WX    TMP DP  RH WIND       PRES   REMARKS
Philadelphia   LGT RAIN  47  41  80 NW16      29.79
Allentown      LGT RAIN  44  35  70 NW13      29.81R
Scranton       CLOUDY    39  34  82 NW15G21   29.81R WCI  31
$$

CTZ002-004>006-009-010-012-RIZ004-006-007-MAZ004-011-015-191900-
Southern New England

 In CT

CITY           SKY/WX    TMP DP  RH WIND       PRES   REMARKS
Bradley Intl   CLOUDY    41  35  79 CALM      29.70R
Hartford       CLOUDY    41  36  82 CALM      29.72R
Danbury        LGT RAIN  40  35  83 NW8       29.74R WCI  34
Wtrbury/Oxford LGT RAIN  39  37  92 W8        29.72R WCI  33
Norwalk Harbor   N/A     39 N/A N/A W1          N/A
Bridgeport     CLOUDY    43  37  79 N7        29.72R
Meriden        CLOUDY    40  36  86 CALM      29.72R
New Haven      CLOUDY    42  37  82 N3        29.72R
Chester        LGT RAIN  39  36  87 N6        29.70S WCI  35
Groton         LGT RAIN  42  40  92 NW6       29.71R
Willimantic    LGT RAIN  41  36  82 CALM      29.71R

 In RI

CITY           SKY/WX    TMP DP  RH WIND       PRES   REMARKS
Providence     LGT RAIN  42  39  89 NW5       29.70R
Block Island   LGT RAIN  40  39  97 NE5       29.70R FOG
Westerly       LGT RAIN  43  41  93 VRB3      29.71R FOG

In MA

CITY           SKY/WX    TMP DP  RH WIND       PRES   REMARKS
Boston         CLOUDY    42  36  79 VRB6      29.67
Worcester      LGT RAIN  38  32  79 W5        29.65S WCI  34
Westfield      CLOUDY    43  33  68 NW7       29.69
Provincetown   LGT RAIN  39  37  92 NE7       29.67F WCI  34
Nantucket      CLOUDY    41  41 100 N16       29.67R
$$

ANZ330-335-338-340-345-350-353-355-191900-
Coastal Marine Observations


STATION/POSITION TIME  SKY/WX   TEMP    WIND        PRES    VSBY  WAVE
                                AIR SEA DIR/SP/G                  HT/PER
                 (UTC)          (F)     (DEG/KT/KT) (MB)    (MI)  (FT/S)
NY Harb Entrance 1750            44 45  340/  8/ 10 1007.3          2/ 8
20 S Fire Island 1750            43 42   30/  4/  6 1006.4          3/ 4
23 SSW Montauk P 1750            41 42   10/  6/  6 1006.1          3/ 8
15 E Barnegat Li 1730               44                N/A           3/ 4
Hudson Canyon    1750            44 45  340/ 12/ 16 1006.0          4/ 5
Kings Point      1748            42 44   20/  8/ 10 1008.3
Execution Rocks  NOT AVBL
Western LI Sound NOT AVBL
Central LI Sound 1745            41     320/  6/  8   N/A           1
Robbins Reef     1748            43     310/  9/ 11 1008.1
$$


>>>>>>>>>>>>>>>>>>>>>>>>>>>> KEY <<<<<<<<<<<<<<<<<<<<<<<<<<<
>                                                          <
>     SKY/WX - Sky Condition/Present Weather               <
>     TMP    - Temperature in Fahrenheit                   <
>     DP     - Dew Point in Fahrenheit                     <
>     RH     - Relative Humidity in Percent                <
>     WIND   - Direction (from) and Speed in MPH           <
>     PRES   - Mean Sea Level Pressure (inches of Hg)      <
>     WCI    - Wind Chill Index                            <
>     VSB    - Visibility in Miles                         <
>     HX     - Heat Index                                  <
>     TC     - Temperature in Celsius                      <
>     VRB    - Varibale Wind Direction                     <
>                                                          <
>>>>>>>>>>>>>>>>>>>>>>>>>>>> KEY <<<<<<<<<<<<<<<<<<<<<<<<<<<




USA.gov is the U.S. government's official web portal to all federal, state and local government web resources and services.